Weather History for PATK - March, 2014

Change the Weather History Date:

Saturday, March 8, 2014

  Actual Average Record
Temperature  
Mean Temperature 14 °F -  
Max Temperature 30 °F 32 °F 51 °F (1984)
Min Temperature -2 °F 8 °F -29 °F (1971)
Degree Days  
Heating Degree Days 51    
Moisture  
Dew Point -4 °F    
Average Humidity 38    
Maximum Humidity 79    
Minimum Humidity 13    
Precipitation  
Precipitation 0.00 in - - ()
Sea Level Pressure  
Sea Level Pressure 29.15 in    
Wind  
Wind Speed 7 mph (NNE)    
Max Wind Speed 14 mph    
Max Gust Speed 20 mph    
Visibility 10 miles    
Events      
Averages and records for this station are not official NWS values.
T = Trace of Precipitation, MM = Missing Value Source: NWS Daily Summary

Daily Weather History Graph

Daily Weather History Graph

Search for Another Location

Airport or City:

Trip Planner

Search our weather history database for the weather conditions in past years. The results will help you decide how hot, cold, wet, or windy it might be!

Date:

Astronomy

Mar. 08, 2014 Rise Set
Actual Time 7:40 AM AKST 6:43 PM AKST
Civil Twilight 6:55 AM AKST 7:28 PM AKST
Nautical Twilight 6:03 AM AKST 8:20 PM AKST
Astronomical Twilight 5:08 AM AKST 9:15 PM AKST
Moon 10:31 AM AKST (3/8) 3:46 AM AKST (3/8)
Length of Visible Light 12h 32m
Length of Day
11h 03m
First Quarter, 53% of the Moon is Illuminated
Mar 8
First Quarter
Mar 16
Full
Mar 23
Last Quarter
Mar 30
New
Apr 7
First Quarter

Hourly Weather History & Observations

Time (AKST) Temp. Windchill Dew Point Humidity Pressure Visibility Wind Dir Wind Speed Gust Speed Precip Events Conditions
12:53 AM 17.1 °F 6.6 °F -2.9 °F 41% 29.29 in 10.0 mi NE 8.1 mph - N/A   Clear
1:53 AM 19.0 °F 7.5 °F -2.9 °F 38% 29.27 in 10.0 mi North 10.4 mph 19.6 mph N/A   Clear
3:53 AM 18.0 °F 8.7 °F -4.0 °F 38% 29.24 in 10.0 mi North 6.9 mph - N/A   Clear
4:53 AM 15.1 °F 6.4 °F -4.0 °F 43% 29.22 in 10.0 mi North 5.8 mph - N/A   Clear
5:53 AM 10.0 °F - -5.1 °F 51% 29.22 in 10.0 mi Calm Calm - N/A   Clear
6:53 AM 1.9 °F - -6.0 °F 69% 29.21 in 10.0 mi Calm Calm - N/A   Clear
7:53 AM -2.0 °F - -7.1 °F 79% 29.21 in 10.0 mi Calm Calm - N/A   Clear
8:53 AM 1.0 °F -6.7 °F -9.0 °F 63% 29.20 in 10.0 mi NE 3.5 mph - N/A   Clear
9:53 AM 18.0 °F 7.7 °F -4.0 °F 38% 29.18 in 10.0 mi NE 8.1 mph - N/A   Clear
10:53 AM 21.0 °F 11.4 °F -2.0 °F 36% 29.17 in 10.0 mi NE 8.1 mph - N/A   Clear
11:53 AM 25.0 °F 15.5 °F -0.9 °F 33% 29.15 in 10.0 mi ENE 9.2 mph - N/A   Clear
12:53 PM 27.0 °F 15.6 °F -0.0 °F 31% 29.13 in 10.0 mi NNE 13.8 mph - N/A   Clear
1:53 PM 30.0 °F 22.4 °F -0.9 °F 27% 29.11 in 10.0 mi NNE 8.1 mph - N/A   Clear
2:53 PM 30.9 °F 22.8 °F -0.9 °F 26% 29.10 in 10.0 mi NNE 9.2 mph - N/A   Clear
3:53 PM 30.9 °F 22.8 °F -2.0 °F 24% 29.08 in 10.0 mi NNE 9.2 mph 17.3 mph N/A   Clear
4:53 PM 30.0 °F 22.4 °F -2.0 °F 25% 29.07 in 10.0 mi North 8.1 mph - N/A   Clear
5:53 PM 28.0 °F 21.7 °F -2.9 °F 26% 29.06 in 10.0 mi North 5.8 mph - N/A   Clear
6:53 PM 25.0 °F 17.1 °F -4.0 °F 28% 29.07 in 10.0 mi North 6.9 mph - N/A   Clear
7:53 PM 21.9 °F 13.4 °F -4.0 °F 32% 29.08 in 10.0 mi North 6.9 mph - N/A   Clear
8:53 PM 19.9 °F 13.4 °F -4.0 °F 35% 29.09 in 10.0 mi NNE 4.6 mph - N/A   Clear
9:53 PM 16.0 °F 10.4 °F -4.0 °F 41% 29.10 in 10.0 mi NNW 3.5 mph - N/A   Clear
10:53 PM 12.9 °F 3.8 °F -5.1 °F 45% 29.11 in 10.0 mi North 5.8 mph - N/A   Clear
11:53 PM 5.0 °F - -7.1 °F 58% 29.12 in 10.0 mi Calm Calm - N/A   Clear